ニオワイズ彗星

C/2021 A7 ( NEOWISE )

English version
Home page
Updated on March 27, 2022

---------------------------------------------------------------------

・ プロフィール

発見日 2021年1月9日
発見光度 20等
発見者 Near-Earth Object Wide-field Infrared Survey Explorer

・ 写真集

・ 軌道要素

Epoch 2022 Jan. 21.0 TT = JDT 2459600.5
T 2021 July 15.30126 TT                                 Rudenko
q   1.9675910            (2000.0)            P               Q
z  +0.0001763      Peri.  356.05254     -0.89449825     -0.15028433
 +/-0.0000028      Node   154.51820     +0.43229553     -0.53088091
e   0.9996531      Incl.   78.14968     +0.11398888     +0.83401444
From 260 observations 2021 Jan. 9-2022 Jan. 11, mean residual 0".6.

・ 星図

・ 光度変化

        m1 = 7.0 + 5 logΔ + 20.0 log r(t + 50)

---------------------------------------------------------------------

軌道要素はM.P.E.C. 2022-C56に掲載されたものです。
星図はステラナビゲータ Ver.10 (アストロアーツ) で作成したものです。
光度グラフはComet for Windowsで作成したものです。

---------------------------------------------------------------------

Copyright(C) Seiichi Yoshida (comet@aerith.net). All rights reserved.